Location: Rounton
(54.4000°N, 1.3500°W)
Time: 12:40:03
(UTC+00:00)

Transit 2A - Pass Details

Date: 30 November 2021
Orbit: 591 x 967 km, 66.7° (Epoch: 17 January)

Event Time Altitude Azimuth Distance (km) Brightness Sun altitude
Rises 06:06:32 0° 300° (WNW) 3,562 - -15.7°
Reaches altitude 10° 06:09:26 10° 312° (NW) 2,659 - -15.3°
Exits shadow 06:10:45 15° 321° (NW) 2,299 8.0 -15.1°
Maximum altitude 06:14:46 28° 10° (N) 1,727 7.7 -14.6°
Drops below altitude 10° 06:20:12 10° 68° (ENE) 2,713 9.6 -13.8°
Sets 06:23:10 0° 80° (E) 3,647 10.6 -13.4°
